Location: Brno
(49.2000°N, 16.6330°E)
Time: 18:24:28
(UTC+02:00)

Transit 4A - Pass Details

Date: 29 July 2021
Orbit: 871 x 974 km, 66.8° (Epoch: 16 September)

Event Time Altitude Azimuth Distance (km) Brightness Sun altitude
Rises 00:05:09 0° 162° (SSE) 3,493 - -21.0°
Reaches altitude 10° 00:08:33 10° 142° (SE) 2,543 - -21.1°
Exits shadow 00:11:54 17° 107° (ESE) 2,099 9.5 -21.2°
Maximum altitude 00:12:06 17° 105° (ESE) 2,097 9.5 -21.2°
Drops below altitude 10° 00:15:37 10° 67° (ENE) 2,530 10.3 -21.3°
Sets 00:18:59 0° 48° (NE) 3,469 11.3 -21.4°
